| time (UTC) | temp C | wind direction | speed KPH | gust KPH | rain 1hr cm | rain 24hr cm | rain mn cm | humidity % | barometer mb |
| 20260507201551 | 11 | 269 | 12.9 | 20.9 | 0.00 | 3.25 | 3.25 | 80 | 1003.5 |
| 20260507200054 | 11 | 305 | 9.7 | 19.3 | 0.00 | 3.25 | 3.25 | 80 | 1003.5 |
| 20260507194547 | 12 | 263 | 9.7 | 20.9 | 0.00 | 3.25 | 3.25 | 81 | 1003.5 |
| 20260507193055 | 12 | 192 | 9.7 | 19.3 | 0.00 | 3.25 | 3.25 | 81 | 1003.4 |
| 20260507191553 | 12 | 246 | 11.3 | 22.5 | 0.00 | 3.25 | 3.25 | 81 | 1003.4 |
| 20260507190052 | 12 | 319 | 8.0 | 20.9 | 0.00 | 3.25 | 3.25 | 83 | 1003.3 |
| 20260507184549 | 13 | 276 | 6.4 | 16.1 | 0.00 | 3.25 | 3.25 | 86 | 1003.3 |
| 20260507183054 | 12 | 276 | 4.8 | 16.1 | 0.00 | 3.25 | 3.25 | 89 | 1003.1 |
| 20260507181547 | 12 | 259 | 4.8 | 17.7 | 0.00 | 3.25 | 3.25 | 91 | 1003.4 |
| 20260507180046 | 12 | 234 | 4.8 | 14.5 | 0.00 | 3.25 | 3.25 | 93 | 1003.4 |
| 20260507174603 | 11 | 275 | 3.2 | 9.7 | 0.00 | 3.25 | 3.25 | 95 | 1003.3 |
| 20260507173059 | 10 | 51 | 4.8 | 16.1 | 0.00 | 3.25 | 3.25 | 96 | 1002.7 |
| 20260507171612 | 10 | 354 | 6.4 | 12.9 | 0.00 | 3.25 | 3.25 | 96 | 1003.6 |
| 20260507170057 | 9 | 298 | 4.8 | 16.1 | 0.00 | 3.25 | 3.25 | 96 | 1003.9 |
| 20260507164605 | 9 | 274 | 1.6 | 12.9 | 0.00 | 3.25 | 3.25 | 96 | 1003.7 |
| 20260507163051 | 8 | 356 | 8.0 | 17.7 | 0.03 | 3.25 | 3.25 | 96 | 1004.1 |
| 20260507161550 | 8 | 348 | 1.6 | 11.3 | 0.08 | 3.25 | 3.25 | 96 | 1003.1 |
| 20260507160051 | 8 | 334 | 3.2 | 16.1 | 0.08 | 3.23 | 3.23 | 96 | 1004.3 |
| 20260507154555 | 8 | 263 | 6.4 | 16.1 | 0.13 | 3.23 | 3.23 | 96 | 1004.5 |
| 20260507153052 | 8 | 227 | 1.6 | 12.9 | 0.18 | 3.20 | 3.20 | 96 | 1003.7 |
| 20260507151552 | 8 | 177 | 3.2 | 9.7 | 0.18 | 3.17 | 3.17 | 96 | 1003.6 |
| 20260507150047 | 8 | 143 | 1.6 | 6.4 | 0.20 | 3.12 | 3.12 | 96 | 1003.8 |
| 20260507144553 | 8 | 225 | 1.6 | 9.7 | 0.20 | 3.10 | 3.10 | 96 | 1004.2 |
| 20260507143055 | 8 | 138 | 4.8 | 8.0 | 0.23 | 3.02 | 3.02 | 96 | 1004.3 |
| 20260507141556 | 8 | 125 | 3.2 | 8.0 | 0.41 | 3.00 | 3.00 | 96 | 1004.5 |
| 20260507140051 | 8 | 130 | 1.6 | 4.8 | 0.51 | 2.90 | 2.90 | 96 | 1004.2 |
| 20260507134555 | 8 | 0 | 1.6 | 4.8 | 0.74 | 2.87 | 2.87 | 96 | 1004.3 |
| 20260507133050 | 8 | 208 | 1.6 | 4.8 | 0.84 | 2.79 | 2.79 | 96 | 1005.0 |
| 20260507131546 | 8 | 0 | 1.6 | 4.8 | 0.71 | 2.54 | 2.54 | 96 | 1005.1 |
| 20260507130051 | 8 | 46 | 1.6 | 9.7 | 0.64 | 2.39 | 2.39 | 96 | 1004.7 |
| 20260507124555 | 8 | 239 | 6.4 | 14.5 | 0.38 | 2.13 | 2.13 | 96 | 1005.3 |
| 20260507123051 | 8 | 229 | 3.2 | 14.5 | 0.18 | 1.93 | 1.93 | 96 | 1005.7 |
| 20260507121601 | 8 | 192 | 8.0 | 22.5 | 0.08 | 1.83 | 1.83 | 96 | 1005.3 |
| 20260507120047 | 8 | 152 | 9.7 | 25.7 | 0.00 | 1.75 | 1.75 | 96 | 1005.6 |
| 20260507114549 | 8 | 177 | 9.7 | 24.1 | 0.00 | 1.73 | 1.73 | 96 | 1005.5 |
| 20260507113052 | 9 | 171 | 9.7 | 17.7 | 0.00 | 1.73 | 1.73 | 96 | 1005.5 |
| 20260507111549 | 9 | 157 | 11.3 | 22.5 | 0.00 | 1.73 | 1.73 | 96 | 1005.2 |
| 20260507110105 | 9 | 180 | 12.9 | 27.4 | 0.00 | 1.73 | 1.73 | 96 | 1005.4 |
| 20260507104548 | 9 | 173 | 9.7 | 25.7 | 0.00 | 1.73 | 1.73 | 96 | 1005.5 |
| 20260507103053 | 9 | 155 | 12.9 | 30.6 | 0.00 | 1.73 | 1.73 | 96 | 1005.7 |
| 20260507101551 | 9 | 148 | 12.9 | 33.8 | 0.00 | 1.73 | 1.73 | 96 | 1005.8 |
| 20260507100051 | 9 | 198 | 14.5 | 33.8 | 0.00 | 1.73 | 1.73 | 96 | 1005.6 |
| 20260507094557 | 9 | 161 | 14.5 | 25.7 | 0.00 | 1.73 | 1.73 | 96 | 1005.6 |
| 20260507093055 | 9 | 183 | 16.1 | 29.0 | 0.00 | 1.70 | 1.70 | 95 | 1005.4 |
| 20260507091608 | 10 | 209 | 14.5 | 35.4 | 0.00 | 1.70 | 1.70 | 96 | 1005.6 |
| 20260507090057 | 10 | 196 | 16.1 | 33.8 | 0.00 | 1.70 | 1.70 | 95 | 1005.8 |
| 20260507084554 | 10 | 166 | 20.9 | 37.0 | 0.00 | 1.70 | 1.70 | 96 | 1005.9 |
| 20260507083050 | 10 | 225 | 16.1 | 41.8 | 0.00 | 1.70 | 1.70 | 96 | 1005.8 |
| 20260507081547 | 10 | 155 | 20.9 | 37.0 | 0.08 | 1.70 | 1.70 | 95 | 1005.8 |
| 20260507080056 | 10 | 155 | 20.9 | 41.8 | 0.10 | 1.70 | 1.70 | 95 | 1005.9 |
| 20260507074547 | 11 | 177 | 24.1 | 45.1 | 0.18 | 1.68 | 1.68 | 95 | 1006.0 |
| 20260507073050 | 11 | 155 | 25.7 | 45.1 | 0.36 | 1.68 | 1.68 | 96 | 1006.1 |
| 20260507071554 | 11 | 184 | 24.1 | 43.5 | 0.64 | 1.63 | 1.63 | 95 | 1006.3 |
| 20260507070059 | 11 | 154 | 25.7 | 53.1 | 0.71 | 1.57 | 1.57 | 96 | 1006.3 |
| 20260507064807 | 10 | 161 | 22.5 | 41.8 | 0.74 | 1.50 | 1.50 | 95 | 1006.4 |
| 20260507063052 | 10 | 121 | 20.9 | 37.0 | 0.74 | 1.30 | 1.30 | 95 | 1006.7 |
| 20260507061551 | 9 | 174 | 20.9 | 40.2 | 0.74 | 0.97 | 0.97 | 95 | 1006.8 |
| 20260507054552 | 10 | 153 | 19.3 | 43.5 | 0.74 | 0.74 | 0.74 | 95 | 1007.1 |
| 20260507053052 | 10 | 156 | 17.7 | 33.8 | 0.53 | 0.53 | 0.53 | 94 | 1007.7 |
| 20260507051546 | 9 | 150 | 22.5 | 40.2 | 0.20 | 0.20 | 0.20 | 94 | 1008.3 |
| 20260507050048 | 10 | 200 | 17.7 | 38.6 | 0.08 | 0.08 | 0.08 | 93 | 1008.7 |
| 20260507044548 | 10 | 171 | 20.9 | 38.6 | 0.00 | 0.00 | 0.00 | 93 | 1008.9 |
| 20260507043048 | 10 | 155 | 17.7 | 35.4 | 0.00 | 0.00 | 0.00 | 93 | 1009.2 |
| 20260507041548 | 10 | 157 | 19.3 | 35.4 | 0.00 | 0.00 | 0.00 | 93 | 1009.5 |
| 20260507040051 | 10 | 161 | 20.9 | 38.6 | 0.00 | 0.00 | 0.00 | 92 | 1009.7 |
| 20260507034557 | 10 | 149 | 19.3 | 33.8 | 0.00 | 0.00 | 0.00 | 93 | 1009.7 |
| 20260507033049 | 10 | 178 | 16.1 | 30.6 | 0.00 | 0.00 | 0.00 | 92 | 1010.0 |
| 20260507031546 | 10 | 161 | 20.9 | 40.2 | 0.00 | 0.00 | 0.00 | 92 | 1010.4 |
| 20260507030052 | 10 | 168 | 22.5 | 40.2 | 0.00 | 0.00 | 0.00 | 92 | 1010.8 |
| 20260507024554 | 10 | 160 | 19.3 | 38.6 | 0.00 | 0.00 | 0.00 | 92 | 1011.2 |
| 20260507023047 | 10 | 155 | 17.7 | 37.0 | 0.00 | 0.00 | 0.00 | 92 | 1011.7 |
| 20260507021551 | 10 | 169 | 20.9 | 37.0 | 0.00 | 0.00 | 0.00 | 92 | 1011.9 |
| 20260507020053 | 10 | 149 | 14.5 | 33.8 | 0.00 | 0.00 | 0.00 | 91 | 1012.2 |
| 20260507014550 | 10 | 160 | 16.1 | 30.6 | 0.00 | 0.00 | 0.00 | 90 | 1012.5 |
| 20260507013046 | 11 | 146 | 14.5 | 32.2 | 0.00 | 0.00 | 0.00 | 89 | 1012.9 |
| 20260507011555 | 12 | 140 | 14.5 | 33.8 | 0.00 | 0.00 | 0.00 | 90 | 1013.0 |
| 20260507010109 | 11 | 164 | 14.5 | 41.8 | 0.00 | 0.00 | 0.00 | 89 | 1013.3 |
| 20260507004553 | 11 | 219 | 16.1 | 38.6 | 0.00 | 0.00 | 0.00 | 90 | 1013.5 |
| 20260507003053 | 11 | 103 | 19.3 | 37.0 | 0.00 | 0.00 | 0.00 | 89 | 1012.3 |
| 20260507001555 | 11 | 169 | 19.3 | 35.4 | 0.00 | 0.00 | 0.00 | 90 | 1013.3 |
| 20260507000059 | 11 | 180 | 19.3 | 37.0 | 0.00 | 0.00 | 0.00 | 89 | 1013.8 |
| 20260506234550 | 11 | 165 | 22.5 | 40.2 | 0.00 | 0.00 | 0.00 | 89 | 1014.0 |
| 20260506233059 | 11 | 183 | 19.3 | 37.0 | 0.00 | 0.00 | 0.00 | 89 | 1014.1 |
| 20260506231551 | 12 | 165 | 20.9 | 40.2 | 0.00 | 0.00 | 0.00 | 89 | 1014.1 |
| 20260506230054 | 12 | 169 | 16.1 | 40.2 | 0.00 | 0.00 | 0.00 | 89 | 1014.0 |
| 20260506224554 | 12 | 143 | 20.9 | 38.6 | 0.00 | 0.00 | 0.00 | 88 | 1014.0 |
| 20260506223058 | 12 | 149 | 22.5 | 40.2 | 0.00 | 0.00 | 0.00 | 89 | 1014.0 |
| 20260506221549 | 12 | 194 | 20.9 | 35.4 | 0.00 | 0.00 | 0.00 | 88 | 1014.2 |
| 20260506220052 | 12 | 161 | 16.1 | 38.6 | 0.00 | 0.00 | 0.00 | 88 | 1014.2 |
| 20260506214556 | 12 | 148 | 22.5 | 38.6 | 0.00 | 0.00 | 0.00 | 87 | 1014.1 |
| 20260506213045 | 12 | 155 | 19.3 | 40.2 | 0.00 | 0.00 | 0.00 | 87 | 1014.2 |
| 20260506211556 | 12 | 183 | 22.5 | 40.2 | 0.00 | 0.00 | 0.00 | 86 | 1014.4 |
| 20260506210052 | 12 | 179 | 19.3 | 41.8 | 0.00 | 0.00 | 0.00 | 87 | 1014.7 |
| 20260506204551 | 12 | 154 | 22.5 | 38.6 | 0.00 | 0.00 | 0.00 | 86 | 1014.7 |
| 20260506203049 | 12 | 154 | 22.5 | 40.2 | 0.00 | 0.00 | 0.00 | 86 | 1014.6 |